Find Starlink 11611

NORAD ID: 63138 Int'l Des: 2025-043 Owner: SPXS Country: US Constellation: starlink operational
LEOCIRCULAR

現在のビュー

3D地球を読み込み中...

About Starlink 11611

Starlink 11611 (NORAD 63138) is a starlink constellation satellite (v2 mini d2c) launched Mar 3, 2025 by SPXS of US. It operates in LEO, CIRCULAR orbit with a mass of 960.00 kg.

Starlink 11611について

説明を読み込み中...

次回通過

Passes for default location (London). Set your location on the main map for personalized predictions.

高度履歴

Loading altitude history...

軌道要素

1 63138U 25043G 26170.86928494 .00150111 00000-0 11512-2 0 9992
2 63138 43.0011 354.6915 0002074 271.4544 88.6086 15.70863237 75544
Epoch: Jun 19, 2026 • Age: 9 hours

現在のステータス

高度 366.8 km
速度 7.69 km/s
衛星直下点 -39.74°S, 116.72°W
打ち上げ日 Mar 3, 2025
運用期間 1.2 years
タイプ internet

技術仕様

分類 Payload
質量 960.00 kg
乾燥質量 910.00 kg
総質量 960.00 kg
長さ 0.30 m
直径 4.10 m
スパン 29.00 m
形状 Box + pan
製造者 SPXS
バスタイプ Starlink V2MD
フェーズステータス In Orbit
所有者/国 SPXS/US

Most Searched